Location: Arrington
(35.8681°N, 86.7092°W)
Time: 11:39:15
(UTC+00:00)

SKYMED 2 - Pass Details

Date: 23 November 2019
Orbit: 621 x 623 km, 97.9° (Epoch: 13 December)

Event Time Altitude Azimuth Distance (km) Brightness Sun altitude
Exits shadow 00:09:35 - 6° (N) 2,865 6.8 -18.9°
Reaches altitude 10° 00:11:43 10° 1° (N) 1,996 6.0 -19.3°
Maximum altitude 00:15:56 51° 286° (WNW) 784 4.4 -20.1°
Drops below altitude 10° 00:20:06 10° 210° (SSW) 1,983 6.7 -21.0°
Sets 00:22:19 0° 206° (SSW) 2,884 7.5 -21.4°
